Temp
89 90 89 89 90 90 89 89 91 91 89 91 92 91 90 90 90 91 91 91 90 90 90 89 89 89 91 90 89 89 90 90 92 91 91 91 92 93 94 93 92 93
89 89 89 90 89 89 89 90 89 90 89 88 91 91 91 91 91 91 90 90 90 90 89 90 89 89 89 91 89 89 89 90 89 95 90 89 91 92 93 92 93 93
89 89 90 90 92 91 93 92 90 90 91 92 92 91 93 92 91 90 90 91 90 92 90 89 89 89 89 89 88 90 90 88 89 93 90 89 92 91 92 96 95 93
89 89 91 92 93 93 94 92 91 90 92 91 92 94 93 96 92 91 90 89 90 89 90 90 90 91 90 89 88 90 90 89 91 90 89 90 91 92 93 93 95 95
90 90 91 92 93 92 93 92 93 93 93 92 94 93 91 90 91 92 91 90 89 91 90 89 90 90 89 89 89 89 90 90 90 89 88 88 89 91 93 93 91 92
91 90 90 91 91 92 93 93 93 94 94 94 93 94 94 92 92 92 92 92 93 93 93 93 92 92 92 90 89 89 91 92 92 88 88 88 90 93 95 93 90 90
92 91 91 92 93 93 92 92 93 93 95 95 94 93 94 93 92 92 92 92 93 92 94 91 90 90 91 90 88 88 89 88 89 88 87 89 89 89 92 91 89 89
93 94 93 92 93 93 93 94 94 93 93 93 94 93 94 94 93 94 93 92 93 92 91 93 90 89 92 92 90 88 89 94 92 88 87 87 88 88 88 91 89 88
93 94 94 93 94 94 96 96 95 94 94 94 95 96 94 94 94 95 91 92 92 91 90 91 89 91 92 91 90 89 89 92 93 91 89 89 89 88 89 90 89 89
92 93 95 95 94 95 95 96 98 97 95 95 96 97 97 94 94 94 92 89 90 90 90 90 90 91 91 92 90 90 90 89 90 90 90 90 90 90 91 90 90 89
93 94 93 93 94 96 96 97 97 98 96 96 96 96 97 96 93 93 91 89 92 91 90 90 91 91 90 92 93 93 92 92 91 91 90 90 90 90 89 89 90 90
92 93 93 93 94 95 96 97 97 97 97 97 97 95 95 97 94 94 92 90 91 91 91 91 91 91 90 91 93 94 93 93 93 92 92 91 92 92 92 92 92 91
88 89 91 92 93 94 96 96 97 98 97 97 96 96 96 96 96 93 93 92 91 92 93 91 91 92 90 91 92 92 92 92 93 93 93 93 93 93 95 94 94 93
88 89 89 90 92 91 92 95 96 96 95 95 95 94 95 96 96 95 94 94 93 93 93 92 91 92 91 91 91 93 93 92 92 92 93 93 94 94 95 96 95 96
86 87 87 89 89 89 90 91 92 93 93 93 92 93 97 96 97 97 95 94 94 93 93 94 95 94 95 93 92 91 92 93 93 93 93 92 93 95 95 94 95 96
85 84 84 86 86 87 87 89 90 91 92 91 91 92 92 92 93 94 96 95 94 93 93 96 96 97 91 85 86 93 93 95 94 92 92 92 91 91 94 95 96 97
83 84 83 82 84 85 86 86 87 89 89 88 89 90 89 90 91 92 94 95 95 94 94 96 97 98 80 74 75 77 89 92 92 91 91 91 92 90 90 93 95 96
79 78 78 79 81 83 84 84 86 86 86 87 88 89 88 91 91 91 91 94 95 96 96 97 98 85 71 72 72 72 78 89 94 94 94 93 93 92 93 93 94 96
76 78 78 78 77 78 80 82 83 83 83 84 86 88 89 88 88 90 90 91 93 92 94 96 95 66 70 69 70 69 69 79 92 93 94 94 94 93 93 92 92 93
77 78 77 77 76 76 75 78 79 80 81 82 84 86 86 87 89 89 89 88 90 91 91 94 88 68 63 66 68 66 67 74 90 92 93 93 92 93 94 93 92 91
76 76 76 75 76 76 75 75 75 77 79 81 83 84 85 85 87 87 88 89 90 92 91 93 81 61 63 63 63 64 66 73 89 92 93 93 93 93 91 92 92 91
72 74 75 75 75 75 74 74 74 75 75 77 78 81 83 86 87 89 88 89 90 92 92 85 78 59 60 61 62 65 65 83 88 88 89 92 92 92 91 90 91 90
70 71 71 72 74 74 73 73 73 73 73 74 73 76 79 81 84 86 86 85 85 87 88 82 79 64 57 58 59 61 71 88 89 90 89 90 91 91 89 89 90 89
70 70 70 70 69 69 71 73 74 73 72 73 72 73 75 78 79 77 80 78 79 81 79 79 78 65 56 57 57 58 69 87 88 89 88 88 89 88 89 89 86 80
70 70 70 69 68 68 68 68 70 70 71 73 73 73 74 74 74 72 69 70 70 72 77 78 79 69 56 55 55 57 68 83 87 88 87 87 89 88 89 90 84 82
71 71 72 72 71 70 69 69 70 70 71 71 71 71 71 70 70 70 69 69 71 73 75 76 75 72 63 54 54 56 58 76 84 84 85 85 86 85 84 86 84 79
MSLP
1020.07 1020.15 1020.39 1020.59 1020.63 1020.63 1020.79 1021.03 1020.83 1020.99 1021.15 1020.95 1021.07 1021.11 1021.27 1021.15 1021.07 1021.19 1021.27 1021.39 1021.55 1021.63 1021.71 1021.79 1021.79 1021.87 1021.79 1021.83 1021.87 1021.95 1022.03 1021.99 1021.79 1021.83 1021.99 1021.99 1022.03 1022.07 1022.11 1022.15 1022.19 1022.15
1019.99 1020.07 1020.15 1020.23 1020.43 1020.55 1020.63 1020.63 1020.79 1020.87 1021.03 1021.07 1020.83 1020.83 1020.87 1020.95 1021.03 1021.11 1021.31 1021.43 1021.47 1021.55 1021.59 1021.67 1021.71 1021.75 1021.79 1021.71 1021.87 1021.99 1022.11 1022.03 1022.15 1021.51 1022.07 1022.19 1022.11 1021.95 1022.07 1022.03 1022.07 1021.95
1019.83 1019.99 1020.19 1020.35 1020.27 1020.39 1020.27 1020.31 1020.51 1020.67 1020.67 1020.59 1020.59 1020.71 1020.75 1020.71 1020.91 1020.99 1021.07 1021.23 1021.35 1021.23 1021.47 1021.55 1021.63 1021.71 1021.75 1021.79 1021.87 1021.95 1021.99 1022.19 1022.19 1021.63 1021.91 1022.23 1021.95 1022.03 1021.87 1021.59 1021.63 1021.83
1019.75 1019.79 1019.83 1019.87 1019.79 1019.91 1019.91 1020.11 1020.39 1020.55 1020.35 1020.63 1020.63 1020.35 1020.43 1020.27 1020.63 1020.91 1021.03 1021.19 1021.27 1021.43 1021.39 1021.43 1021.55 1021.51 1021.67 1021.75 1021.87 1021.91 1021.87 1021.99 1021.83 1021.79 1022.03 1021.99 1021.95 1021.87 1021.83 1021.67 1021.59 1021.59
1019.47 1019.67 1019.67 1019.63 1019.55 1019.55 1019.67 1019.95 1020.07 1020.15 1020.27 1020.27 1020.23 1020.27 1020.51 1020.67 1020.75 1020.75 1020.91 1021.07 1021.15 1021.27 1021.31 1021.47 1021.47 1021.51 1021.59 1021.71 1021.79 1021.99 1021.87 1021.95 1021.79 1021.91 1022.15 1022.27 1022.03 1021.95 1021.79 1021.71 1021.95 1022.07
1019.15 1019.27 1019.43 1019.59 1019.63 1019.67 1019.75 1019.83 1019.95 1019.91 1019.99 1020.11 1020.27 1020.03 1020.19 1020.47 1020.55 1020.55 1020.67 1020.79 1020.75 1020.83 1020.91 1021.03 1021.27 1021.23 1021.31 1021.59 1021.71 1021.83 1021.71 1021.67 1021.47 1021.87 1022.19 1022.27 1022.03 1021.63 1021.51 1021.71 1022.03 1022.19
1018.91 1019.11 1019.31 1019.27 1019.43 1019.47 1019.71 1019.67 1019.67 1019.71 1019.71 1019.67 1019.79 1020.11 1019.99 1020.27 1020.43 1020.43 1020.51 1020.55 1020.51 1020.59 1020.67 1020.87 1021.11 1021.19 1021.11 1021.31 1021.63 1021.83 1021.83 1021.87 1021.79 1021.91 1022.23 1022.07 1022.03 1022.03 1021.67 1021.79 1022.07 1022.23
1018.55 1018.51 1018.75 1018.99 1019.23 1019.23 1019.47 1019.47 1019.55 1019.63 1019.63 1019.67 1019.87 1019.95 1019.95 1020.07 1020.23 1020.15 1020.27 1020.39 1020.47 1020.59 1020.67 1020.71 1020.95 1021.19 1021.03 1021.07 1021.43 1021.67 1021.75 1021.43 1021.67 1021.95 1022.15 1022.23 1022.07 1022.23 1022.07 1021.87 1021.99 1022.23
1018.27 1018.35 1018.47 1018.79 1018.95 1018.95 1019.07 1019.03 1019.19 1019.35 1019.31 1019.67 1019.71 1019.51 1019.63 1019.79 1019.95 1019.99 1020.19 1020.31 1020.39 1020.47 1020.67 1020.75 1020.91 1020.95 1020.87 1020.95 1021.15 1021.43 1021.59 1021.39 1021.19 1021.55 1021.87 1022.03 1022.07 1022.11 1021.99 1021.79 1021.99 1022.11
1018.31 1018.31 1018.31 1018.47 1018.75 1018.71 1018.79 1018.67 1018.55 1018.79 1018.95 1019.27 1019.35 1019.19 1019.35 1019.55 1019.71 1019.83 1020.11 1020.43 1020.51 1020.55 1020.63 1020.67 1020.75 1020.75 1020.75 1020.75 1021.03 1021.15 1021.27 1021.39 1021.35 1021.43 1021.51 1021.63 1021.75 1021.75 1021.71 1021.75 1021.87 1022.03
1018.15 1018.19 1018.35 1018.43 1018.47 1018.31 1018.43 1018.39 1018.35 1018.39 1018.55 1018.91 1018.99 1019.07 1019.03 1019.19 1019.59 1019.71 1020.07 1020.39 1020.43 1020.51 1020.55 1020.55 1020.55 1020.59 1020.75 1020.67 1020.55 1020.55 1020.79 1020.91 1020.99 1021.11 1021.27 1021.39 1021.39 1021.47 1021.51 1021.63 1021.71 1021.75
1018.03 1018.03 1018.11 1018.19 1018.27 1018.23 1018.15 1018.11 1018.15 1018.23 1018.35 1018.55 1018.67 1018.95 1018.95 1018.95 1019.31 1019.55 1019.79 1020.19 1020.19 1020.15 1020.19 1020.27 1020.27 1020.31 1020.47 1020.55 1020.43 1020.31 1020.47 1020.55 1020.63 1020.83 1020.91 1021.03 1021.03 1021.03 1021.11 1021.11 1021.23 1021.35
1018.19 1018.07 1017.99 1018.07 1018.15 1018.11 1017.91 1017.95 1018.11 1018.11 1018.23 1018.39 1018.47 1018.67 1018.87 1018.95 1018.99 1019.35 1019.43 1019.71 1019.95 1019.91 1019.91 1019.99 1020.07 1020.07 1020.19 1020.31 1020.31 1020.27 1020.35 1020.55 1020.55 1020.59 1020.67 1020.71 1020.67 1020.67 1020.55 1020.59 1020.71 1020.83
1018.03 1017.91 1017.95 1017.95 1017.87 1017.95 1018.07 1017.99 1017.95 1018.03 1018.11 1018.19 1018.27 1018.59 1018.75 1018.71 1018.79 1018.99 1019.19 1019.35 1019.51 1019.63 1019.59 1019.59 1019.83 1019.91 1019.99 1020.11 1020.11 1020.15 1020.31 1020.43 1020.55 1020.59 1020.55 1020.51 1020.43 1020.43 1020.31 1020.27 1020.31 1020.35
1017.87 1017.87 1017.83 1017.95 1017.99 1018.11 1018.15 1018.15 1018.11 1018.15 1018.15 1018.27 1018.47 1018.55 1018.39 1018.43 1018.39 1018.55 1018.87 1019.11 1019.11 1019.27 1019.35 1019.31 1019.39 1019.59 1019.51 1019.71 1019.99 1020.19 1020.11 1020.27 1020.35 1020.43 1020.51 1020.55 1020.55 1020.35 1020.19 1020.23 1020.19 1020.07
1017.67 1017.83 1017.99 1017.99 1018.11 1018.27 1018.31 1018.27 1018.19 1018.23 1018.23 1018.43 1018.47 1018.55 1018.55 1018.47 1018.47 1018.47 1018.59 1018.83 1019.07 1019.19 1019.23 1019.19 1019.15 1018.95 1019.07 1019.43 1019.63 1019.67 1019.87 1019.87 1019.95 1020.15 1020.27 1020.31 1020.51 1020.51 1020.31 1020.07 1019.95 1019.79
1017.79 1017.79 1017.83 1018.15 1018.15 1018.19 1018.23 1018.39 1018.43 1018.27 1018.35 1018.51 1018.59 1018.59 1018.67 1018.63 1018.75 1018.79 1018.67 1018.55 1018.67 1018.87 1019.07 1018.99 1018.75 1018.55 1018.99 1019.47 1019.75 1019.91 1019.87 1019.87 1020.07 1020.15 1020.19 1020.35 1020.35 1020.51 1020.63 1020.27 1019.83 1019.63
1018.03 1018.27 1018.51 1018.39 1018.19 1018.27 1018.31 1018.39 1018.39 1018.51 1018.63 1018.63 1018.67 1018.67 1018.75 1018.67 1018.75 1018.87 1018.79 1018.59 1018.47 1018.47 1018.59 1018.59 1018.47 1018.43 1018.99 1019.35 1019.63 1019.87 1020.07 1019.95 1019.75 1019.83 1019.83 1019.91 1019.99 1020.07 1020.03 1019.99 1019.95 1019.71
1018.31 1018.39 1018.55 1018.67 1018.71 1018.59 1018.51 1018.55 1018.67 1018.83 1018.91 1018.87 1018.83 1018.59 1018.55 1018.87 1018.87 1018.75 1018.79 1018.71 1018.55 1018.63 1018.51 1018.27 1018.59 1019.83 1019.27 1019.51 1019.79 1020.03 1020.23 1020.31 1019.87 1019.67 1019.67 1019.63 1019.59 1019.75 1019.79 1019.87 1019.87 1019.95
1018.23 1018.39 1018.59 1018.67 1018.75 1018.95 1019.07 1019.07 1019.15 1019.15 1019.11 1018.99 1018.87 1018.67 1018.87 1018.95 1018.75 1018.75 1018.71 1018.79 1018.67 1018.67 1018.63 1018.39 1019.15 1019.79 1019.75 1019.79 1019.95 1020.11 1020.19 1020.31 1019.87 1019.71 1019.55 1019.51 1019.55 1019.55 1019.51 1019.59 1019.79 1019.95
1018.07 1018.19 1018.39 1018.63 1018.71 1018.91 1019.15 1019.27 1019.31 1019.31 1019.27 1019.19 1019.11 1018.99 1018.95 1019.07 1018.91 1018.83 1018.67 1018.63 1018.55 1018.43 1018.67 1018.79 1019.71 1020.27 1019.95 1019.91 1019.95 1020.11 1020.19 1020.23 1019.71 1019.51 1019.35 1019.31 1019.27 1019.35 1019.51 1019.59 1019.59 1019.71
1018.55 1018.35 1018.27 1018.39 1018.55 1018.75 1019.07 1019.23 1019.23 1019.31 1019.43 1019.31 1019.31 1019.11 1018.95 1018.63 1018.67 1018.39 1018.47 1018.51 1018.31 1018.23 1018.43 1019.39 1020.11 1020.51 1020.47 1020.43 1020.23 1019.99 1020.11 1019.91 1019.55 1019.63 1019.55 1019.31 1019.19 1019.27 1019.35 1019.43 1019.51 1019.63
1018.95 1018.87 1018.95 1018.91 1018.71 1018.75 1018.99 1019.15 1019.27 1019.35 1019.35 1019.27 1019.51 1019.39 1019.23 1019.19 1018.95 1018.67 1018.39 1018.51 1018.67 1018.63 1018.75 1019.67 1020.27 1020.83 1020.75 1020.63 1020.47 1020.35 1019.99 1019.35 1019.19 1019.27 1019.39 1019.43 1019.31 1019.27 1019.47 1019.51 1019.51 1019.63
1019.19 1019.19 1019.27 1019.23 1019.27 1019.43 1019.23 1018.91 1018.83 1018.99 1019.15 1019.23 1019.39 1019.35 1019.39 1019.23 1019.19 1019.51 1019.19 1019.19 1019.27 1019.27 1019.75 1020.15 1020.47 1020.95 1020.87 1020.67 1020.55 1020.39 1020.03 1019.23 1019.15 1019.31 1019.47 1019.51 1019.47 1019.51 1019.39 1019.47 1019.75 1020.15
1019.43 1019.43 1019.55 1019.63 1019.67 1019.67 1019.55 1019.51 1019.35 1019.23 1019.27 1019.27 1019.27 1019.23 1019.35 1019.39 1019.59 1019.91 1020.63 1020.55 1020.47 1020.55 1020.31 1020.23 1020.47 1020.91 1021.03 1020.87 1020.71 1020.51 1020.15 1019.55 1019.23 1019.27 1019.59 1019.59 1019.47 1019.55 1019.39 1019.35 1020.07 1020.23
1019.43 1019.59 1019.59 1019.67 1019.71 1019.83 1019.79 1019.83 1019.79 1019.71 1019.67 1019.63 1019.55 1019.55 1019.71 1019.87 1019.79 1019.99 1020.43 1020.79 1020.83 1020.99 1020.75 1020.63 1020.91 1021.15 1021.31 1021.11 1020.99 1020.67 1020.47 1020.03 1019.67 1019.87 1019.79 1019.75 1019.63 1019.75 1019.91 1019.67 1019.95 1020.79
Wind_Speed
8 7 7 6 6 5 4 5 4 4 4 3 4 3 3 3 3 3 4 4 4 5 5 4 5 5 4 4 4 4 3 3 2 3 3 3 3 4 3 2 3 4
9 8 6 6 6 5 5 4 4 3 3 3 3 2 3 3 5 5 5 5 5 5 4 5 5 5 4 4 5 4 3 3 4 3 3 3 4 3 4 4 4 3
9 9 9 8 7 8 8 6 4 4 4 4 4 3 4 4 5 5 4 5 5 5 5 5 5 5 5 4 3 4 5 4 4 3 2 3 4 3 4 4 4 4
10 9 9 9 8 7 7 6 6 5 4 4 5 5 4 3 4 6 5 5 4 4 4 4 4 4 4 4 3 4 4 4 4 3 2 3 3 4 4 4 3 3
10 10 9 8 8 7 6 6 7 6 6 4 5 4 4 3 5 5 5 6 5 5 5 5 4 5 4 4 4 4 4 4 4 4 4 4 4 4 4 3 3 4
9 9 9 8 8 7 7 7 7 6 6 6 5 5 5 6 5 5 5 6 7 6 6 6 6 6 6 5 5 4 4 5 4 5 5 4 5 4 4 3 3 4
10 10 11 9 10 9 8 8 7 6 6 5 5 5 4 5 6 5 6 6 5 5 6 5 5 5 5 5 5 5 4 4 3 2 4 4 4 4 4 3 3 4
11 10 10 9 10 10 10 9 8 7 6 6 6 6 5 6 6 6 6 6 6 6 5 5 6 6 6 6 6 6 6 5 6 5 4 4 3 3 4 4 3 4
10 10 10 10 11 10 11 10 9 9 7 7 7 6 6 6 6 6 5 6 6 6 6 6 6 6 7 6 6 6 6 5 4 4 4 4 5 5 5 4 4 5
10 10 10 10 10 10 11 10 9 9 9 9 8 7 7 7 6 6 6 6 6 6 6 6 6 7 6 7 7 6 6 6 5 4 4 5 5 5 4 5 5 4
11 10 11 10 10 9 11 11 10 9 9 10 9 9 8 7 7 6 6 7 7 7 7 7 7 7 6 7 6 6 7 7 6 6 6 5 5 4 4 4 4 5
10 10 10 11 10 10 10 10 10 10 9 9 9 9 9 8 8 8 7 8 8 7 7 7 7 6 6 6 7 7 6 6 6 6 6 6 6 6 6 6 5 5
9 9 9 9 9 9 9 9 9 10 10 9 9 9 9 9 9 9 8 8 8 8 8 8 7 7 6 6 6 6 5 5 6 6 6 6 7 7 7 6 6 6
9 9 8 8 8 8 8 9 9 9 9 8 8 9 10 10 10 10 9 9 8 8 8 7 7 7 7 7 7 7 6 7 6 6 6 6 6 6 6 6 6 6
8 8 7 7 8 8 8 9 8 8 8 8 8 8 9 10 10 10 9 10 9 9 9 8 8 9 7 8 8 7 7 7 7 7 7 6 6 6 7 7 7 7
9 8 7 7 8 8 8 8 9 9 9 9 9 9 8 8 8 9 10 10 9 9 9 9 8 8 6 4 2 5 7 7 6 6 7 6 6 6 6 7 7 7
9 9 8 8 6 6 7 7 8 8 8 8 8 8 8 8 8 9 10 9 10 10 10 10 9 8 12 10 9 8 7 6 6 6 6 7 7 6 6 7 6 6
8 4 3 5 7 7 6 5 6 8 8 8 8 9 8 8 9 10 9 9 9 9 10 9 10 7 15 12 11 9 7 7 7 7 7 7 8 7 7 7 7 7
6 8 7 6 4 3 5 5 6 6 7 9 9 9 8 9 9 9 10 9 9 9 9 9 4 12 6 7 6 6 6 6 7 8 8 7 7 7 7 6 5 5
8 9 7 6 6 6 5 7 7 7 6 6 7 7 8 8 10 10 9 8 8 8 7 7 6 6 7 6 4 6 7 7 7 8 8 8 7 7 6 6 6 5
8 9 9 7 8 7 6 8 7 6 7 7 6 6 7 7 8 9 8 9 10 9 9 5 7 9 8 6 5 5 7 8 7 8 8 8 8 7 7 7 6 5
3 4 6 9 10 9 8 8 6 5 4 4 5 6 5 7 7 9 9 9 9 8 7 7 7 13 10 9 4 4 9 7 7 7 8 8 7 6 5 4 4 5
7 6 6 4 2 7 8 6 6 6 3 3 3 5 6 6 9 8 6 3 4 6 5 6 7 10 10 10 9 6 6 5 5 5 6 7 6 4 4 4 3 2
7 7 7 7 7 7 3 3 7 6 5 5 5 6 6 6 4 6 2 4 1 3 8 7 7 9 11 11 10 11 10 4 4 4 4 4 4 4 3 3 4 6
8 9 8 8 9 7 8 8 6 3 2 2 4 2 2 2 2 7 6 6 8 6 5 7 6 8 11 11 11 11 9 5 3 3 4 5 4 5 5 3 4 5
8 8 8 8 8 7 6 6 5 5 4 3 4 3 4 4 6 6 7 5 6 3 5 6 8 8 10 12 11 12 11 7 2 3 4 3 4 2 3 3 3 6
Wind_Direction
206 204 204 203 203 206 202 201 214 197 215 230 209 182 195 193 205 205 204 200 203 214 204 207 206 208 206 200 201 219 234 228 265 174 209 237 233 238 237 230 261 260
209 210 210 209 200 199 202 213 205 233 197 225 248 174 192 186 192 198 202 206 202 209 212 208 206 211 217 204 199 214 212 213 227 199 205 222 246 237 233 226 252 275
213 211 211 213 206 200 207 196 200 210 211 212 193 206 191 190 196 190 197 210 213 211 197 215 211 211 210 211 209 216 209 213 229 223 205 236 254 249 265 240 215 209
217 221 218 219 220 206 208 198 191 209 216 198 212 194 210 175 181 184 190 200 206 209 213 214 223 212 205 211 219 235 216 220 219 235 222 236 244 256 247 247 258 245
215 215 223 226 226 223 216 207 212 192 211 200 208 185 186 192 196 188 190 188 202 203 195 208 204 217 203 210 214 234 225 225 208 215 229 229 233 233 247 247 255 258
210 217 218 225 227 227 222 212 212 214 210 192 211 193 189 182 206 197 189 199 193 208 201 198 198 205 204 199 215 229 237 236 197 197 222 229 241 228 244 220 236 248
211 208 216 216 222 221 228 225 216 218 211 217 188 214 196 194 199 201 195 203 216 207 211 196 202 209 204 202 207 210 228 253 288 212 229 240 228 247 255 242 248 260
218 213 211 217 221 220 221 219 219 212 214 216 210 199 215 212 203 205 201 205 208 204 211 208 197 206 216 206 209 210 220 215 210 220 226 245 262 247 244 261 242 246
221 219 213 216 220 222 218 215 206 212 207 211 218 210 195 222 203 214 198 204 218 199 196 211 206 210 215 218 213 211 220 237 225 210 221 234 229 232 242 241 243 243
220 229 224 215 218 220 222 219 215 203 202 210 212 223 204 199 215 215 192 206 213 203 203 209 203 212 217 212 214 220 221 216 224 227 230 229 234 243 238 236 243 246
222 221 223 223 226 222 218 218 220 214 201 209 212 217 216 198 195 209 201 201 214 205 208 210 208 210 215 225 221 215 214 220 216 213 217 224 234 238 244 249 247 255
226 223 223 221 222 226 225 221 219 221 213 205 216 217 213 214 194 203 201 204 217 214 210 210 212 214 212 224 227 219 214 220 216 217 217 224 225 222 224 224 231 229
226 225 224 220 222 230 229 223 223 222 222 218 212 218 216 214 206 203 203 207 209 217 216 209 212 217 216 219 227 231 228 229 231 217 222 225 223 230 229 221 224 225
221 224 223 225 225 224 232 237 229 223 223 224 222 217 219 219 215 204 202 210 211 213 216 212 211 217 215 221 226 226 228 225 227 236 232 226 231 230 237 235 227 230
207 217 219 218 227 226 227 228 228 227 226 225 221 229 222 221 222 217 210 210 211 215 217 219 214 215 215 210 213 221 235 232 232 232 232 233 236 236 227 232 243 245
197 197 208 220 220 221 223 227 225 223 222 220 222 221 228 231 230 224 221 215 215 213 220 223 225 224 191 173 265 242 220 232 230 231 240 240 235 238 240 235 234 244
207 198 194 200 205 212 218 222 229 229 224 222 223 225 229 222 228 226 228 223 216 216 214 221 222 220 146 167 191 230 255 240 238 238 228 235 238 232 249 252 247 236
200 183 213 210 209 207 209 211 221 228 230 224 225 222 220 228 220 224 229 232 226 223 220 218 225 152 150 175 193 203 230 256 247 238 230 227 231 238 238 241 243 246
202 208 201 208 197 187 214 223 227 232 234 233 229 228 226 225 228 227 221 225 234 228 227 226 157 22 93 130 161 184 202 244 257 253 250 245 237 234 242 251 258 260
213 214 213 222 210 203 198 215 227 233 238 241 241 236 234 235 231 229 224 219 224 223 227 229 74 32 54 71 141 178 186 210 244 248 249 249 253 251 246 237 233 245
218 214 206 197 206 206 206 214 220 231 231 232 242 239 231 231 240 231 221 219 215 211 211 214 63 19 40 55 93 184 182 208 236 244 242 242 240 237 242 252 245 238
333 253 228 207 201 200 202 205 207 214 214 222 239 233 242 244 239 238 227 221 227 224 203 88 61 24 14 9 22 143 165 211 223 229 239 244 234 235 236 229 234 246
36 52 64 44 255 206 184 186 182 195 188 174 199 231 238 230 236 244 241 225 195 217 163 92 67 23 14 10 356 342 227 217 223 221 229 232 236 219 221 221 228 214
49 56 54 63 56 44 44 197 187 190 174 192 208 204 222 244 237 231 14 38 359 40 84 94 78 39 22 16 3 353 324 259 195 219 209 221 199 194 201 191 110 64
39 40 45 51 54 53 49 35 33 81 77 195 222 221 257 210 75 60 57 51 65 77 103 93 84 55 33 23 14 6 352 303 252 227 208 217 215 208 216 198 124 100
43 39 48 50 57 56 45 48 32 34 53 77 77 85 97 94 97 108 102 73 67 69 93 74 71 60 38 31 25 19 4 343 304 268 252 224 237 284 236 206 142 106